Weather History for PALU - May, 2013

Change the Weather History Date:

Monday, May 27, 2013

  Actual Average Record
Temperature  
Mean Temperature 32 °F -  
Max Temperature 33 °F 34 °F 48 °F (2006)
Min Temperature 30 °F 26 °F 18 °F (2001)
Degree Days  
Heating Degree Days 34    
Moisture  
Dew Point 32 °F    
Average Humidity 100    
Maximum Humidity 100    
Minimum Humidity 100    
Precipitation  
Precipitation 0.04 in - - ()
Sea Level Pressure  
Sea Level Pressure 29.99 in    
Wind  
Wind Speed 9 mph (East)    
Max Wind Speed 13 mph    
Max Gust Speed -    
Visibility 2 miles    
Events Fog , Rain    
Averages and records for this station are not official NWS values.
T = Trace of Precipitation, MM = Missing Value Source: NWS Daily Summary

Daily Weather History Graph

Daily Weather History Graph

Search for Another Location

Airport or City:

Trip Planner

Search our weather history database for the weather conditions in past years. The results will help you decide how hot, cold, wet, or windy it might be!

Date:

Astronomy

May. 27, 2013 Rise Set
Actual Time 3:34 AM AKDT 2:29 AM AKDT
Civil Twilight Sun does not rise Sun does not rise
Nautical Twilight Sun does not rise Sun does not rise
Astronomical Twilight Sun does not rise Sun does not rise
Moon 3:38 AM AKDT (5/27) 7:21 AM AKDT (5/27)
Length of Visible Light 24h 00m
Length of Day
22h 55m
Waning Gibbous, 90% of the Moon is Illuminated
May 27
Waning Gibbous
May 31
Last Quarter
Jun 8
New
Jun 16
First Quarter
Jun 23
Full

Hourly Weather History & Observations

Time (AKDT) Temp. Windchill Dew Point Humidity Pressure Visibility Wind Dir Wind Speed Gust Speed Precip Events Conditions
12:20 AM 30.2 °F 20.8 °F 30.2 °F 100% 30.02 in 2.5 mi East 11.5 mph - N/A   Overcast
12:40 AM - - - N/A% 30.01 in 1.5 mi East 12.7 mph - N/A   Overcast
12:55 AM - - - N/A% 30.01 in 0.8 mi East 11.5 mph - N/A   Overcast
1:20 AM - - - N/A% 30.02 in 1.0 mi East 11.5 mph - N/A   Overcast
1:40 AM - - - N/A% 30.02 in 0.5 mi East 10.4 mph - N/A Fog Light Freezing Fog
1:55 AM - - - N/A% 30.02 in 0.5 mi East 10.4 mph - N/A Fog Light Freezing Fog
2:40 AM - - - N/A% 30.03 in 0.5 mi East 10.4 mph - N/A Fog Fog
2:55 AM - - - N/A% 30.03 in 0.5 mi ESE 11.5 mph - N/A Fog Light Drizzle
3:20 AM - - - N/A% 30.02 in 0.8 mi East 11.5 mph - N/A   Light Drizzle
3:40 AM - - - N/A% 30.02 in 6.0 mi East 11.5 mph - N/A Rain Light Rain Showers
3:55 AM - - - N/A% 30.02 in 4.0 mi East 12.7 mph - N/A Rain Light Rain Showers
4:00 AM - - - N/A% 30.02 in 2.5 mi East 12.7 mph - N/A Rain Light Rain Showers
4:40 AM - - - N/A% 30.01 in 2.0 mi East 11.5 mph - N/A Rain Light Freezing Rain
4:55 AM - - - N/A% 30.01 in 7.0 mi East 10.4 mph - 0.00 in Rain Light Freezing Rain
5:20 AM - - - N/A% 30.01 in 10.0 mi ESE 11.5 mph - N/A   Unknown
5:55 AM - - - N/A% 30.01 in 8.0 mi East 11.5 mph - 0.02 in Rain Light Rain
6:20 AM - - - N/A% 30.00 in 10.0 mi East 10.4 mph - N/A   Unknown
6:55 AM - - - N/A% 30.00 in 10.0 mi ESE 8.1 mph - 0.02 in   Overcast
7:55 AM 31.8 °F 24.6 °F 32.5 °F 100% 30.00 in 10.0 mi ESE 8.1 mph - 0.00 in   Overcast
8:00 AM 32.0 °F 24.2 °F 32.0 °F 100% 30.00 in 10.0 mi ESE 9.2 mph - N/A   Overcast
8:55 AM 31.3 °F 23.9 °F 32.0 °F 100% 29.99 in 1.0 mi East 8.1 mph - 0.00 in   Mostly Cloudy
9:00 AM 32.0 °F 25.6 °F 32.0 °F 100% 30.00 in 0.5 mi East 6.9 mph - N/A Fog Fog
9:20 AM 32.0 °F 24.8 °F 32.0 °F 100% 30.00 in 0.2 mi East 8.1 mph - N/A Fog , Rain Light Rain
9:40 AM 32.0 °F 25.6 °F 32.0 °F 100% 29.99 in 0.2 mi East 6.9 mph - N/A Fog , Rain Light Rain
9:55 AM 31.6 °F 25.1 °F 32.4 °F 100% 29.99 in 0.2 mi East 6.9 mph - N/A Fog , Rain Light Freezing Rain
10:55 AM 31.8 °F 25.4 °F 32.5 °F 100% 29.99 in 0.2 mi East 6.9 mph - N/A Fog , Rain Light Freezing Rain
11:55 AM - - - N/A% 29.99 in 0.2 mi East 5.8 mph - N/A Fog , Rain Light Rain
12:55 PM - - - N/A% 30.00 in 0.2 mi East 4.6 mph - N/A Fog , Rain Light Rain
1:55 PM - - - N/A% 29.99 in 0.2 mi East 4.6 mph - N/A Fog , Rain Light Rain
2:00 PM - - - N/A% 29.99 in 0.2 mi East 5.8 mph - N/A Fog Fog
2:20 PM - - - N/A% 29.98 in 0.2 mi ESE 8.1 mph - N/A Fog , Rain Light Rain Showers
2:40 PM - - - N/A% 29.99 in 0.2 mi East 6.9 mph - N/A Fog , Rain Light Rain Showers
2:55 PM - - - N/A% 29.99 in 0.2 mi East 4.6 mph - N/A Fog , Rain Light Rain Showers
3:20 PM 33.8 °F 30.8 °F 33.8 °F 100% 29.99 in 0.2 mi East 3.5 mph - N/A Fog Fog
3:40 PM - - - N/A% 29.99 in 0.2 mi East 2.3 mph - N/A Fog Fog
3:55 PM - - - N/A% 29.99 in 0.2 mi East 3.5 mph - N/A Fog Fog
4:20 PM 33.8 °F 28.6 °F 33.8 °F 100% 29.99 in 0.5 mi East 5.8 mph - N/A   Mist
4:55 PM 32.9 °F 28.5 °F 33.4 °F 100% 29.98 in 0.5 mi East 4.6 mph - N/A Fog Fog
5:20 PM - - - N/A% 29.98 in 0.2 mi East 5.8 mph - N/A Fog Fog
5:55 PM - - - N/A% 29.97 in 0.2 mi East 4.6 mph - N/A Fog Fog
6:20 PM - - - N/A% 29.98 in 0.8 mi East 4.6 mph - N/A   Overcast
6:40 PM - - - N/A% 29.98 in 0.2 mi East 3.5 mph - N/A Fog Fog
6:55 PM - - - N/A% 29.97 in 0.5 mi ENE 5.8 mph - N/A Fog Fog
7:40 PM - - - N/A% 29.97 in 1.0 mi ENE 4.6 mph - N/A   Mist
7:55 PM - - - N/A% 29.97 in 0.8 mi ENE 3.5 mph - N/A   Overcast
8:20 PM - - - N/A% 29.97 in 0.8 mi North 4.6 mph - N/A   Mist
8:40 PM - - - N/A% 29.98 in 1.5 mi North 4.6 mph - N/A   Overcast
8:55 PM - - - N/A% 29.98 in 1.0 mi NNW 4.6 mph - N/A   Overcast
9:20 PM - - - N/A% 29.97 in 3.0 mi WNW 5.8 mph - N/A   Overcast
9:40 PM - - - N/A% 29.97 in 1.5 mi NW 4.6 mph - N/A   Overcast
9:55 PM - - - N/A% 29.98 in 2.5 mi WNW 4.6 mph - N/A   Overcast
10:20 PM - - - N/A% 29.97 in 0.5 mi NW 4.6 mph - N/A Fog Fog
10:40 PM - - - N/A% 29.97 in 1.0 mi NW 3.5 mph - N/A   Overcast
10:55 PM - - - N/A% 29.97 in 1.2 mi NW 3.5 mph - N/A   Overcast
11:20 PM - - - N/A% 29.97 in 0.8 mi WNW 3.5 mph - N/A   Overcast
11:40 PM - - - N/A% 29.97 in 2.5 mi NW 3.5 mph - N/A   Overcast
11:55 PM - - - N/A% 29.97 in 2.5 mi NW 2.3 mph - N/A   Overcast